TimeEET,TemperatureF,Dew PointF,Humidity,Sea Level PressureIn,VisibilityMPH,Wind Direction,Wind SpeedMPH,Gust SpeedMPH,PrecipitationIn,Events,Conditions,WindDirDegrees,DateUTC
12:20 AM,51.8,50.0,94,30.04,-9999.0,NE,4.6,-,N/A,,Clear,40,2012-11-13 22:20:00
12:50 AM,51.8,50.0,94,30.01,-9999.0,NNE,5.8,-,N/A,,Clear,30,2012-11-13 22:50:00
1:20 AM,53.6,50.0,88,30.01,-9999.0,NE,5.8,-,N/A,,Clear,40,2012-11-13 23:20:00
1:50 AM,51.8,50.0,94,30.01,-9999.0,ENE,4.6,-,N/A,,Clear,60,2012-11-13 23:50:00
2:00 AM,52,50,89,30.04,6,ENE,4.6,,,,,60,2012-11-14 00:00:00
2:20 AM,51.8,50.0,94,30.04,-9999.0,NNE,6.9,-,N/A,,Clear,30,2012-11-14 00:20:00
2:50 AM,51.8,48.2,88,30.04,-9999.0,NE,4.6,-,N/A,,Clear,50,2012-11-14 00:50:00
3:20 AM,51.8,50.0,94,30.01,-9999.0,NNE,5.8,-,N/A,,Clear,20,2012-11-14 01:20:00
3:50 AM,51.8,48.2,88,30.01,-9999.0,NE,3.5,-,N/A,,Clear,50,2012-11-14 01:50:00
4:20 AM,50.0,48.2,94,30.01,-9999.0,NE,5.8,-,N/A,,Clear,50,2012-11-14 02:20:00
4:50 AM,50.0,48.2,94,30.01,-9999.0,ENE,3.5,-,N/A,,Clear,60,2012-11-14 02:50:00
5:20 AM,50.0,48.2,94,30.04,-9999.0,NNE,6.9,-,N/A,,Clear,30,2012-11-14 03:20:00
5:50 AM,48.2,46.4,93,30.01,-9999.0,NE,6.9,-,N/A,,Clear,40,2012-11-14 03:50:00
6:20 AM,48.2,48.2,100,30.04,-9999.0,NNE,4.6,-,N/A,,Clear,20,2012-11-14 04:20:00
6:50 AM,48.2,46.4,93,30.04,-9999.0,NNE,5.8,-,N/A,,Clear,20,2012-11-14 04:50:00
7:20 AM,50.0,48.2,94,30.04,-9999.0,ENE,4.6,-,N/A,,Clear,60,2012-11-14 05:20:00
7:50 AM,51.8,50.0,94,30.04,-9999.0,ENE,4.6,-,N/A,,Clear,70,2012-11-14 05:50:00
8:00 AM,52,49,85,30.04,6,ENE,4.6,,,,,70,2012-11-14 06:00:00
8:20 AM,57.2,51.8,82,30.04,-9999.0,NE,3.5,-,N/A,,Clear,50,2012-11-14 06:20:00
8:50 AM,60.8,50.0,68,30.04,-9999.0,NE,4.6,-,N/A,,Clear,40,2012-11-14 06:50:00
9:20 AM,64.4,50.0,59,30.04,-9999.0,ENE,4.6,-,N/A,,Clear,60,2012-11-14 07:20:00
9:50 AM,66.2,50.0,56,30.04,-9999.0,ENE,4.6,-,N/A,,Clear,70,2012-11-14 07:50:00
10:20 AM,68.0,51.8,56,30.04,-9999.0,NNE,4.6,-,N/A,,Clear,20,2012-11-14 08:20:00
10:50 AM,69.8,50.0,49,30.04,-9999.0,Variable,2.3,-,N/A,,Clear,0,2012-11-14 08:50:00
11:20 AM,73.4,51.8,47,30.04,-9999.0,Calm,Calm,-,N/A,,Clear,0,2012-11-14 09:20:00
11:50 AM,73.4,55.4,53,30.04,6.2,SSW,4.6,-,N/A,,Partly Cloudy,200,2012-11-14 09:50:00
12:20 PM,71.6,55.4,57,30.04,6.2,SSW,8.1,-,N/A,,Partly Cloudy,210,2012-11-14 10:20:00
12:50 PM,71.6,57.2,60,30.01,6.2,SW,9.2,-,N/A,,Partly Cloudy,220,2012-11-14 10:50:00
1:20 PM,71.6,59.0,64,30.01,6.2,SW,8.1,-,N/A,,Partly Cloudy,220,2012-11-14 11:20:00
1:50 PM,71.6,57.2,60,30.01,6.2,SW,6.9,-,N/A,,Partly Cloudy,220,2012-11-14 11:50:00
2:00 PM,71,58,54,30.03,6,SW,6.9,,,,Scattered Clouds,220,2012-11-14 12:00:00
2:20 PM,71.6,59.0,64,30.01,6.2,SW,6.9,-,N/A,,Partly Cloudy,220,2012-11-14 12:20:00
2:50 PM,69.8,57.2,64,30.01,6.2,SW,8.1,-,N/A,,Partly Cloudy,230,2012-11-14 12:50:00
3:20 PM,71.6,57.2,60,30.01,6.2,SW,5.8,-,N/A,,Partly Cloudy,220,2012-11-14 13:20:00
3:50 PM,71.6,55.4,57,30.01,6.2,SSW,4.6,-,N/A,,Partly Cloudy,210,2012-11-14 13:50:00
4:20 PM,69.8,55.4,60,30.01,6.2,SW,4.6,-,N/A,,Partly Cloudy,220,2012-11-14 14:20:00
4:50 PM,68.0,55.4,64,30.01,-9999.0,South,4.6,-,N/A,,Clear,190,2012-11-14 14:50:00
5:20 PM,64.4,57.2,77,30.01,-9999.0,ESE,4.6,-,N/A,,Clear,120,2012-11-14 15:20:00
5:50 PM,62.6,57.2,82,30.01,-9999.0,East,3.5,-,N/A,,Clear,100,2012-11-14 15:50:00
6:20 PM,60.8,57.2,88,30.04,-9999.0,East,3.5,-,N/A,,Clear,100,2012-11-14 16:20:00
6:50 PM,59.0,57.2,94,30.04,-9999.0,NNE,4.6,-,N/A,,Clear,30,2012-11-14 16:50:00
7:20 PM,57.2,55.4,94,30.04,-9999.0,NE,4.6,-,N/A,,Clear,40,2012-11-14 17:20:00
7:50 PM,59.0,55.4,88,30.04,-9999.0,NE,4.6,-,N/A,,Clear,50,2012-11-14 17:50:00
8:00 PM,58,55,86,30.06,6,NE,4.6,,,,,50,2012-11-14 18:00:00
8:20 PM,57.2,55.4,94,30.04,-9999.0,NE,4.6,-,N/A,,Clear,40,2012-11-14 18:20:00
8:50 PM,57.2,55.4,94,30.04,-9999.0,NE,4.6,-,N/A,,Clear,40,2012-11-14 18:50:00
9:20 PM,57.2,55.4,94,30.04,-9999.0,NNE,5.8,-,N/A,,Clear,30,2012-11-14 19:20:00
9:50 PM,55.4,53.6,94,30.04,-9999.0,NNE,4.6,-,N/A,,Clear,20,2012-11-14 19:50:00
10:20 PM,55.4,53.6,94,30.06,-9999.0,NE,4.6,-,N/A,,Clear,50,2012-11-14 20:20:00
10:50 PM,55.4,53.6,94,30.06,-9999.0,NE,5.8,-,N/A,,Clear,50,2012-11-14 20:50:00
11:20 PM,55.4,53.6,94,30.06,-9999.0,NNE,6.9,-,N/A,,Clear,20,2012-11-14 21:20:00
11:50 PM,55.4,53.6,94,30.06,-9999.0,NE,4.6,-,N/A,,Clear,50,2012-11-14 21:50:00